Regional Weather Roundup
Issued by NWS Sioux Falls, SD

Home | Current Version | Previous Version | Text Only | Print | Product List | Glossary On
Versions: 1 2 3 4 5 6 7 8 9 10 11 12 13 14 15 16 17 18 19 20 21 22 23 24 25 26 27 28 29 30 31 32 33 34 35 36 37 38 39 40 41 42 43 44 45 46 47 48 49 50
000
ASUS43 KFSD 170402
RWRFSD

WEATHER ROUNDUP FOR SE SOUTH DAKOTA/SW MINNESOTA/NW IOWA
NATIONAL WEATHER SERVICE SIOUX FALLS SD
1100 PM CDT WED APR 16 2014

NOTE: "FAIR" INDICATES FEW OR NO CLOUDS BELOW 12,000 FEET WITH NO
SIGNIFICANT WEATHER AND OR OBSTRUCTIONS TO VISIBILITY.


SDZ038>040-050-052>070-170500-
SOUTHEAST SOUTH DAKOTA

CITY           SKY/WX    TMP DP  RH WIND       PRES   REMARKS
CHAMBERLAIN      N/A     29  22  75 N6        30.21R WCI  23
HURON          MOCLDY    31  23  72 N13       30.19R WCI  21
MITCHELL       CLOUDY    32  24  72 N14       30.18R WCI  22
SIOUX FALLS    CLOUDY    29  25  85 N15G28    30.11R WCI  18
WINNER         CLOUDY    32  22  66 N14       30.21R WCI  22
YANKTON        CLOUDY    30  25  80 N17       30.16R WCI  18
$$

MNZ071-072-080-081-089-090-097-098-170500-
SOUTHWEST MINNESOTA

CITY           SKY/WX    TMP DP  RH WIND       PRES   REMARKS
FAIRMONT       CLOUDY    30  27  86 NW29G36   29.94R WCI  15
JACKSON        CLOUDY    30  28  93 NW26G35   29.98R WCI  16
LUVERNE        CLOUDY    32  27  80 N15G23    30.08R WCI  22
MARSHALL       CLOUDY    28  23  80 N22       30.08R WCI  15
MONTEVIDEO     CLOUDY    28  25  86 NE20      30.12R WCI  15
PIPESTONE      CLOUDY    28  25  86 N15G24    30.06R WCI  17
REDWOOD FALLS  CLOUDY    29  25  85 N18G28    30.05R WCI  16
TRACY          CLOUDY    29  27  90 N21G26    30.06R WCI  16
WINDOM         MIX PCPN  28  27  93 N25G33    30.00R WCI  14
WORTHINGTON    CLOUDY    28  21  74 N23G31    30.04R WCI  14
$$

IAZ001>003-012>014-020>022-031-032-NEZ013-014-SDZ071-170500-
NORTHWEST IOWA

CITY           SKY/WX    TMP DP  RH WIND       PRES   REMARKS
CHEROKEE       CLOUDY    32  30  92 N20G25    30.04R WCI  20
DENISON        CLOUDY    34  28  80 N23G36    30.00R WCI  22
ESTHERVILLE    CLOUDY    30  29  96 N28G36    29.96R WCI  15
SHELDON        CLOUDY    30  27  86 N23G32    30.04R WCI  17
SIOUX CITY     CLOUDY    34  28  79 N22G35    30.08R WCI  22
SPENCER        CLOUDY    31  28  89 NW29G38   30.00R WCI  16
STORM LAKE     CLOUDY    32  30  93 NW23G32   30.01R WCI  19
$$

ABBREVIATIONS USED IN REMARKS
   TC - TEMPERATURE IN CELSIUS
  WCI - WIND CHILL INDEX
   HX - HEAT INDEX
  VSB - VISIBILITY




USA.gov is the U.S. government's official web portal to all federal, state and local government web resources and services.